QPF
0.02 0.03 0.03 0.03 0.02 0.02 0.02 0.01 0.01 0.01 0.01 0.01 0.00 0.01 0.01 0.01 0.01 0.02 0.02 0.04 0.07 0.09 0.08 0.07 0.07 0.06 0.04 0.03 0.04 0.06 0.08 0.08 0.06 0.06 0.06 0.04 0.04 0.04 0.04 0.05 0.05 0.06 0.06
0.01 0.02 0.02 0.02 0.01 0.01 0.01 0.00 0.00 0.01 0.00 0.00 0.00 0.00 0.01 0.01 0.00 0.01 0.01 0.02 0.04 0.07 0.08 0.07 0.06 0.06 0.04 0.03 0.05 0.07 0.11 0.11 0.07 0.06 0.06 0.05 0.05 0.04 0.04 0.04 0.04 0.05 0.05
0.01 0.01 0.01 0.01 0.01 0.01 0.01 0.01 0.00 0.00 0.00 0.00 0.01 0.00 0.00 0.00 0.00 0.00 0.01 0.01 0.02 0.03 0.04 0.04 0.06 0.05 0.03 0.04 0.07 0.09 0.12 0.10 0.08 0.07 0.07 0.06 0.05 0.04 0.04 0.05 0.06 0.05 0.05
0.00 0.01 0.01 0.01 0.01 0.01 0.01 0.01 0.00 0.00 0.00 0.00 0.01 0.01 0.00 0.00 0.00 0.00 0.01 0.01 0.01 0.01 0.03 0.04 0.05 0.05 0.04 0.04 0.05 0.09 0.11 0.09 0.09 0.08 0.07 0.06 0.05 0.07 0.11 0.10 0.07 0.06 0.06
0.01 0.01 0.02 0.01 0.01 0.01 0.01 0.01 0.01 0.01 0.00 0.00 0.00 0.01 0.01 0.00 0.00 0.00 0.01 0.02 0.02 0.02 0.03 0.03 0.03 0.04 0.06 0.05 0.04 0.08 0.12 0.10 0.09 0.08 0.08 0.08 0.07 0.13 0.29 0.18 0.11 0.07 0.08
0.01 0.01 0.01 0.01 0.00 0.01 0.01 0.01 0.01 0.02 0.01 0.01 0.00 0.00 0.00 0.00 0.00 0.00 0.01 0.02 0.01 0.01 0.03 0.02 0.01 0.02 0.04 0.05 0.04 0.04 0.07 0.09 0.09 0.08 0.08 0.11 0.11 0.18 0.28 0.21 0.15 0.12 0.12
0.01 0.01 0.01 0.01 0.00 0.01 0.02 0.01 0.01 0.01 0.01 0.01 0.00 0.00 0.00 0.00 0.00 0.01 0.01 0.02 0.02 0.02 0.02 0.02 0.02 0.01 0.01 0.03 0.03 0.04 0.06 0.07 0.09 0.11 0.11 0.13 0.16 0.22 0.26 0.23 0.17 0.13 0.13
0.01 0.01 0.01 0.01 0.01 0.02 0.02 0.01 0.01 0.01 0.01 0.01 0.01 0.00 0.00 0.01 0.01 0.01 0.02 0.02 0.04 0.03 0.02 0.02 0.02 0.02 0.02 0.02 0.03 0.06 0.07 0.08 0.08 0.12 0.13 0.15 0.16 0.17 0.18 0.17 0.17 0.20 0.22
0.01 0.01 0.01 0.01 0.01 0.02 0.02 0.01 0.01 0.02 0.02 0.02 0.02 0.01 0.01 0.01 0.01 0.01 0.02 0.02 0.03 0.04 0.04 0.03 0.02 0.04 0.05 0.05 0.08 0.11 0.12 0.12 0.10 0.11 0.12 0.16 0.19 0.18 0.14 0.12 0.12 0.21 0.27
0.02 0.02 0.02 0.02 0.03 0.02 0.02 0.02 0.01 0.01 0.02 0.02 0.02 0.01 0.01 0.00 0.01 0.02 0.02 0.02 0.03 0.06 0.08 0.06 0.06 0.07 0.08 0.09 0.09 0.10 0.13 0.15 0.12 0.09 0.11 0.12 0.12 0.13 0.12 0.12 0.12 0.12 0.16
0.02 0.03 0.03 0.03 0.04 0.03 0.02 0.03 0.03 0.02 0.01 0.01 0.01 0.02 0.01 0.01 0.00 0.01 0.02 0.02 0.02 0.04 0.06 0.07 0.08 0.07 0.09 0.10 0.08 0.08 0.10 0.11 0.13 0.13 0.13 0.14 0.12 0.09 0.08 0.09 0.12 0.10 0.08
0.02 0.02 0.04 0.04 0.04 0.03 0.03 0.04 0.04 0.03 0.03 0.02 0.01 0.02 0.01 0.01 0.01 0.01 0.01 0.01 0.02 0.02 0.04 0.06 0.07 0.07 0.09 0.10 0.10 0.08 0.08 0.09 0.11 0.11 0.14 0.15 0.15 0.11 0.09 0.08 0.08 0.08 0.07
0.02 0.02 0.04 0.05 0.04 0.04 0.03 0.03 0.04 0.04 0.03 0.03 0.02 0.02 0.02 0.02 0.01 0.02 0.02 0.01 0.01 0.02 0.03 0.05 0.06 0.07 0.07 0.09 0.10 0.09 0.07 0.06 0.08 0.09 0.09 0.12 0.17 0.12 0.08 0.08 0.07 0.05 0.06
0.02 0.03 0.03 0.04 0.04 0.04 0.04 0.03 0.03 0.04 0.04 0.03 0.03 0.03 0.02 0.02 0.02 0.02 0.02 0.01 0.01 0.02 0.03 0.04 0.05 0.07 0.07 0.09 0.11 0.09 0.08 0.06 0.05 0.06 0.06 0.07 0.10 0.10 0.07 0.06 0.05 0.03 0.04
0.03 0.03 0.03 0.03 0.04 0.03 0.04 0.04 0.05 0.04 0.03 0.03 0.03 0.03 0.03 0.02 0.02 0.02 0.02 0.01 0.01 0.01 0.02 0.03 0.04 0.05 0.05 0.06 0.08 0.08 0.07 0.05 0.04 0.04 0.04 0.03 0.04 0.05 0.05 0.05 0.04 0.02 0.03
0.03 0.02 0.02 0.02 0.03 0.03 0.03 0.03 0.03 0.03 0.03 0.02 0.02 0.03 0.04 0.03 0.01 0.01 0.01 0.01 0.01 0.01 0.01 0.02 0.03 0.04 0.04 0.04 0.04 0.03 0.03 0.03 0.03 0.03 0.03 0.02 0.02 0.02 0.03 0.03 0.03 0.03 0.03
0.02 0.02 0.01 0.02 0.02 0.02 0.02 0.02 0.02 0.02 0.02 0.03 0.02 0.03 0.03 0.03 0.02 0.02 0.01 0.01 0.01 0.01 0.01 0.01 0.02 0.02 0.02 0.03 0.03 0.02 0.01 0.01 0.01 0.01 0.01 0.01 0.01 0.01 0.01 0.01 0.02 0.03 0.04
0.02 0.02 0.01 0.02 0.02 0.03 0.02 0.02 0.02 0.02 0.02 0.02 0.02 0.02 0.03 0.03 0.02 0.01 0.01 0.01 0.00 0.00 0.01 0.01 0.01 0.01 0.01 0.01 0.02 0.02 0.01 0.00 0.00 0.00 0.00 0.00 0.01 0.01 0.02 0.01 0.01 0.02 0.03
0.02 0.01 0.01 0.02 0.02 0.03 0.02 0.01 0.01 0.01 0.02 0.01 0.01 0.01 0.02 0.02 0.02 0.01 0.01 0.01 0.01 0.00 0.00 0.01 0.01 0.01 0.01 0.00 0.01 0.01 0.01 0.01 0.00 0.00 0.00 0.00 0.01 0.01 0.02 0.03 0.03 0.03 0.02
0.02 0.01 0.01 0.01 0.02 0.02 0.02 0.01 0.02 0.02 0.02 0.01 0.01 0.01 0.01 0.01 0.01 0.01 0.01 0.01 0.01 0.00 0.00 0.00 0.00 0.00 0.00 0.01 0.01 0.01 0.01 0.02 0.01 0.00 0.00 0.00 0.00 0.01 0.02 0.03 0.05 0.08 0.05
0.02 0.02 0.01 0.01 0.01 0.01 0.01 0.01 0.01 0.01 0.01 0.01 0.01 0.01 0.01 0.02 0.01 0.01 0.01 0.01 0.00 0.00 0.00 0.00 0.00 0.00 0.01 0.01 0.01 0.02 0.02 0.03 0.02 0.01 0.00 0.00 0.01 0.01 0.02 0.03 0.05 0.09 0.10
0.02 0.02 0.02 0.02 0.02 0.01 0.01 0.01 0.01 0.01 0.01 0.01 0.01 0.01 0.01 0.02 0.01 0.02 0.01 0.01 0.00 0.00 0.00 0.01 0.01 0.00 0.01 0.01 0.02 0.02 0.02 0.03 0.03 0.01 0.00 0.00 0.00 0.01 0.02 0.04 0.04 0.07 0.09
0.02 0.02 0.03 0.04 0.02 0.01 0.01 0.01 0.01 0.01 0.01 0.01 0.01 0.01 0.01 0.01 0.01 0.01 0.01 0.01 0.01 0.01 0.01 0.00 0.00 0.00 0.01 0.01 0.02 0.02 0.04 0.04 0.02 0.01 0.00 0.01 0.00 0.00 0.01 0.04 0.05 0.05 0.06
0.03 0.03 0.03 0.03 0.02 0.01 0.01 0.01 0.01 0.01 0.00 0.00 0.01 0.01 0.01 0.01 0.02 0.01 0.02 0.01 0.01 0.02 0.02 0.01 0.00 0.00 0.00 0.01 0.02 0.02 0.05 0.06 0.02 0.01 0.01 0.01 0.01 0.00 0.01 0.02 0.03 0.03 0.04
0.02 0.02 0.04 0.03 0.02 0.01 0.01 0.01 0.02 0.01 0.01 0.01 0.01 0.02 0.01 0.01 0.02 0.02 0.02 0.01 0.01 0.01 0.01 0.01 0.01 0.01 0.00 0.01 0.01 0.01 0.03 0.04 0.03 0.01 0.01 0.01 0.01 0.00 0.00 0.01 0.01 0.01 0.01
0.02 0.04 0.05 0.04 0.02 0.01 0.01 0.02 0.02 0.01 0.01 0.01 0.02 0.02 0.02 0.01 0.02 0.02 0.01 0.01 0.01 0.01 0.01 0.01 0.01 0.00 0.00 0.01 0.01 0.01 0.01 0.02 0.03 0.01 0.01 0.01 0.00 0.00 0.00 0.00 0.00 0.00 0.00
MSLP
1013.14 1013.05 1012.93 1012.81 1012.72 1012.70 1012.75 1012.87 1013.04 1013.24 1013.44 1013.63 1013.79 1013.93 1014.05 1014.16 1014.25 1014.30 1014.29 1014.19 1013.99 1013.68 1013.28 1012.84 1012.39 1012.01 1011.75 1011.63 1011.67 1011.85 1012.16 1012.54 1012.96 1013.37 1013.74 1014.08 1014.36 1014.59 1014.77 1014.91 1014.99 1015.02 1015.00
1013.51 1013.45 1013.38 1013.30 1013.25 1013.25 1013.30 1013.41 1013.55 1013.72 1013.89 1014.05 1014.20 1014.34 1014.46 1014.57 1014.65 1014.68 1014.64 1014.51 1014.29 1013.98 1013.60 1013.19 1012.79 1012.46 1012.23 1012.13 1012.16 1012.31 1012.56 1012.88 1013.21 1013.55 1013.86 1014.14 1014.38 1014.59 1014.75 1014.87 1014.93 1014.93 1014.88
1013.80 1013.77 1013.74 1013.73 1013.73 1013.77 1013.84 1013.94 1014.07 1014.20 1014.34 1014.48 1014.61 1014.74 1014.84 1014.93 1014.99 1014.99 1014.92 1014.78 1014.55 1014.25 1013.91 1013.55 1013.22 1012.96 1012.78 1012.72 1012.75 1012.88 1013.07 1013.30 1013.55 1013.79 1014.02 1014.23 1014.42 1014.59 1014.72 1014.81 1014.85 1014.83 1014.75
1014.01 1014.02 1014.05 1014.09 1014.16 1014.24 1014.34 1014.44 1014.55 1014.66 1014.77 1014.87 1014.97 1015.07 1015.16 1015.22 1015.24 1015.21 1015.12 1014.96 1014.73 1014.45 1014.15 1013.87 1013.61 1013.43 1013.32 1013.30 1013.34 1013.44 1013.57 1013.72 1013.88 1014.03 1014.17 1014.31 1014.44 1014.56 1014.65 1014.71 1014.73 1014.69 1014.60
1014.19 1014.23 1014.31 1014.41 1014.53 1014.66 1014.78 1014.88 1014.97 1015.05 1015.12 1015.19 1015.26 1015.33 1015.38 1015.41 1015.41 1015.34 1015.22 1015.04 1014.82 1014.57 1014.32 1014.10 1013.93 1013.82 1013.77 1013.79 1013.84 1013.91 1013.99 1014.07 1014.13 1014.19 1014.25 1014.32 1014.39 1014.46 1014.52 1014.55 1014.54 1014.48 1014.38
1014.36 1014.42 1014.54 1014.69 1014.86 1015.01 1015.14 1015.24 1015.31 1015.36 1015.39 1015.43 1015.47 1015.51 1015.54 1015.54 1015.50 1015.41 1015.27 1015.07 1014.85 1014.63 1014.42 1014.26 1014.15 1014.10 1014.11 1014.14 1014.19 1014.23 1014.26 1014.27 1014.26 1014.24 1014.24 1014.24 1014.26 1014.28 1014.30 1014.29 1014.26 1014.18 1014.08
1014.54 1014.62 1014.76 1014.94 1015.13 1015.30 1015.43 1015.51 1015.56 1015.57 1015.58 1015.59 1015.61 1015.63 1015.64 1015.63 1015.57 1015.47 1015.31 1015.11 1014.89 1014.68 1014.51 1014.38 1014.32 1014.30 1014.33 1014.36 1014.39 1014.40 1014.37 1014.32 1014.25 1014.17 1014.11 1014.06 1014.03 1014.02 1013.99 1013.95 1013.89 1013.79 1013.68
1014.73 1014.82 1014.97 1015.16 1015.35 1015.51 1015.62 1015.69 1015.71 1015.70 1015.70 1015.70 1015.71 1015.73 1015.74 1015.73 1015.67 1015.56 1015.39 1015.19 1014.98 1014.79 1014.63 1014.53 1014.48 1014.47 1014.48 1014.50 1014.49 1014.44 1014.36 1014.24 1014.12 1014.00 1013.89 1013.81 1013.75 1013.69 1013.63 1013.55 1013.45 1013.32 1013.19
1014.92 1015.01 1015.15 1015.33 1015.50 1015.64 1015.73 1015.78 1015.78 1015.77 1015.76 1015.77 1015.80 1015.84 1015.87 1015.86 1015.82 1015.71 1015.55 1015.36 1015.16 1014.98 1014.84 1014.74 1014.69 1014.66 1014.64 1014.61 1014.54 1014.43 1014.28 1014.11 1013.94 1013.78 1013.65 1013.55 1013.46 1013.37 1013.27 1013.14 1012.99 1012.83 1012.67
1015.09 1015.17 1015.29 1015.44 1015.59 1015.70 1015.76 1015.79 1015.79 1015.79 1015.80 1015.83 1015.89 1015.96 1016.02 1016.04 1016.01 1015.93 1015.79 1015.62 1015.44 1015.27 1015.14 1015.05 1014.98 1014.93 1014.86 1014.76 1014.63 1014.45 1014.23 1014.01 1013.80 1013.61 1013.46 1013.34 1013.23 1013.11 1012.97 1012.80 1012.60 1012.38 1012.18
1015.24 1015.29 1015.39 1015.50 1015.60 1015.68 1015.72 1015.74 1015.75 1015.77 1015.82 1015.90 1016.00 1016.11 1016.20 1016.25 1016.24 1016.17 1016.06 1015.92 1015.77 1015.63 1015.53 1015.44 1015.37 1015.30 1015.19 1015.03 1014.82 1014.57 1014.30 1014.02 1013.77 1013.55 1013.38 1013.25 1013.12 1012.98 1012.80 1012.58 1012.33 1012.06 1011.81
1015.35 1015.38 1015.44 1015.50 1015.57 1015.61 1015.64 1015.66 1015.69 1015.75 1015.84 1015.97 1016.11 1016.26 1016.37 1016.44 1016.46 1016.41 1016.33 1016.22 1016.11 1016.03 1015.96 1015.91 1015.86 1015.77 1015.64 1015.43 1015.17 1014.85 1014.51 1014.18 1013.89 1013.65 1013.47 1013.32 1013.17 1013.01 1012.80 1012.53 1012.23 1011.91 1011.60
1015.45 1015.44 1015.46 1015.48 1015.50 1015.52 1015.54 1015.57 1015.64 1015.74 1015.88 1016.06 1016.24 1016.41 1016.54 1016.62 1016.64 1016.61 1016.55 1016.48 1016.43 1016.41 1016.41 1016.42 1016.40 1016.34 1016.20 1015.97 1015.65 1015.29 1014.89 1014.52 1014.19 1013.92 1013.71 1013.55 1013.39 1013.20 1012.97 1012.67 1012.32 1011.95 1011.60
1015.56 1015.52 1015.49 1015.46 1015.44 1015.44 1015.46 1015.51 1015.62 1015.77 1015.96 1016.17 1016.38 1016.56 1016.69 1016.76 1016.78 1016.75 1016.71 1016.69 1016.71 1016.76 1016.84 1016.93 1016.98 1016.96 1016.83 1016.60 1016.26 1015.86 1015.42 1015.00 1014.63 1014.33 1014.10 1013.91 1013.73 1013.53 1013.28 1012.96 1012.58 1012.18 1011.79
1015.72 1015.64 1015.56 1015.49 1015.43 1015.41 1015.44 1015.52 1015.66 1015.85 1016.09 1016.33 1016.56 1016.74 1016.86 1016.91 1016.90 1016.87 1016.85 1016.87 1016.95 1017.09 1017.26 1017.43 1017.56 1017.60 1017.51 1017.29 1016.94 1016.51 1016.03 1015.57 1015.16 1014.82 1014.56 1014.35 1014.16 1013.94 1013.68 1013.34 1012.95 1012.53 1012.12
1015.95 1015.83 1015.71 1015.60 1015.52 1015.48 1015.52 1015.62 1015.80 1016.03 1016.30 1016.57 1016.80 1016.97 1017.07 1017.09 1017.06 1017.02 1017.01 1017.07 1017.20 1017.41 1017.67 1017.93 1018.14 1018.23 1018.19 1017.98 1017.64 1017.19 1016.68 1016.18 1015.73 1015.35 1015.05 1014.81 1014.59 1014.36 1014.09 1013.75 1013.35 1012.93 1012.51
1016.26 1016.12 1015.97 1015.83 1015.73 1015.68 1015.72 1015.84 1016.05 1016.32 1016.62 1016.90 1017.14 1017.29 1017.36 1017.36 1017.31 1017.26 1017.25 1017.33 1017.51 1017.77 1018.10 1018.43 1018.69 1018.84 1018.83 1018.64 1018.30 1017.83 1017.30 1016.76 1016.27 1015.85 1015.51 1015.24 1014.99 1014.74 1014.45 1014.10 1013.71 1013.29 1012.87
1016.64 1016.50 1016.33 1016.17 1016.06 1016.01 1016.05 1016.19 1016.42 1016.71 1017.03 1017.32 1017.56 1017.71 1017.76 1017.74 1017.67 1017.61 1017.61 1017.70 1017.90 1018.20 1018.57 1018.93 1019.23 1019.41 1019.42 1019.24 1018.89 1018.42 1017.87 1017.30 1016.77 1016.31 1015.93 1015.62 1015.33 1015.05 1014.73 1014.38 1013.98 1013.56 1013.14
1017.04 1016.92 1016.77 1016.61 1016.49 1016.44 1016.48 1016.63 1016.87 1017.17 1017.50 1017.81 1018.05 1018.19 1018.25 1018.22 1018.15 1018.09 1018.09 1018.19 1018.40 1018.71 1019.08 1019.45 1019.75 1019.93 1019.94 1019.76 1019.41 1018.93 1018.37 1017.78 1017.23 1016.74 1016.32 1015.96 1015.63 1015.30 1014.95 1014.56 1014.14 1013.70 1013.28
1017.43 1017.35 1017.23 1017.10 1016.99 1016.94 1016.98 1017.13 1017.36 1017.67 1018.00 1018.31 1018.55 1018.71 1018.77 1018.76 1018.70 1018.66 1018.67 1018.77 1018.97 1019.26 1019.61 1019.96 1020.24 1020.40 1020.39 1020.20 1019.85 1019.37 1018.82 1018.23 1017.67 1017.16 1016.70 1016.30 1015.91 1015.53 1015.12 1014.68 1014.21 1013.74 1013.28
1017.74 1017.75 1017.69 1017.59 1017.50 1017.47 1017.50 1017.64 1017.86 1018.15 1018.47 1018.77 1019.02 1019.19 1019.28 1019.29 1019.26 1019.24 1019.27 1019.37 1019.56 1019.83 1020.14 1020.45 1020.68 1020.81 1020.78 1020.58 1020.24 1019.77 1019.23 1018.67 1018.12 1017.60 1017.12 1016.67 1016.24 1015.78 1015.30 1014.78 1014.24 1013.69 1013.17
1017.96 1018.06 1018.08 1018.04 1017.99 1017.96 1018.00 1018.11 1018.31 1018.57 1018.86 1019.15 1019.40 1019.59 1019.70 1019.75 1019.77 1019.78 1019.83 1019.94 1020.11 1020.35 1020.62 1020.88 1021.07 1021.15 1021.10 1020.91 1020.58 1020.15 1019.65 1019.12 1018.59 1018.09 1017.60 1017.12 1016.62 1016.09 1015.52 1014.90 1014.26 1013.63 1013.02
1018.05 1018.26 1018.38 1018.41 1018.40 1018.40 1018.43 1018.52 1018.68 1018.90 1019.16 1019.43 1019.67 1019.87 1020.01 1020.11 1020.17 1020.22 1020.30 1020.42 1020.59 1020.81 1021.03 1021.24 1021.39 1021.44 1021.38 1021.19 1020.89 1020.50 1020.06 1019.59 1019.10 1018.62 1018.14 1017.63 1017.08 1016.47 1015.81 1015.08 1014.33 1013.58 1012.86
1018.01 1018.34 1018.55 1018.67 1018.72 1018.74 1018.77 1018.84 1018.97 1019.15 1019.38 1019.62 1019.85 1020.05 1020.22 1020.35 1020.45 1020.55 1020.66 1020.80 1020.97 1021.17 1021.37 1021.54 1021.65 1021.68 1021.61 1021.44 1021.18 1020.85 1020.47 1020.05 1019.62 1019.17 1018.70 1018.17 1017.58 1016.90 1016.15 1015.32 1014.46 1013.59 1012.75
1017.86 1018.30 1018.60 1018.80 1018.91 1018.97 1019.02 1019.09 1019.19 1019.34 1019.54 1019.75 1019.97 1020.18 1020.36 1020.53 1020.67 1020.80 1020.95 1021.10 1021.28 1021.46 1021.64 1021.78 1021.87 1021.89 1021.82 1021.67 1021.45 1021.17 1020.84 1020.49 1020.10 1019.69 1019.22 1018.69 1018.06 1017.34 1016.51 1015.60 1014.63 1013.66 1012.71
1017.61 1018.13 1018.52 1018.80 1018.98 1019.10 1019.18 1019.26 1019.37 1019.51 1019.68 1019.88 1020.10 1020.31 1020.51 1020.69 1020.87 1021.03 1021.20 1021.37 1021.55 1021.72 1021.88 1022.01 1022.08 1022.09 1022.03 1021.89 1021.70 1021.45 1021.17 1020.85 1020.51 1020.11 1019.66 1019.12 1018.48 1017.72 1016.85 1015.88 1014.84 1013.78 1012.74
Thickness
5713 5713 5712 5711 5710 5710 5709 5708 5707 5707 5706 5706 5705 5705 5705 5705 5706 5706 5707 5709 5710 5711 5711 5712 5713 5713 5713 5713 5714 5714 5714 5714 5714 5714 5714 5715 5716 5716 5717 5717 5718 5718 5719
5710 5709 5708 5707 5706 5706 5705 5704 5703 5702 5701 5700 5700 5699 5699 5700 5700 5701 5701 5702 5703 5704 5705 5706 5708 5708 5708 5708 5709 5709 5709 5709 5709 5709 5710 5711 5712 5712 5713 5714 5714 5714 5714
5708 5706 5704 5703 5702 5702 5701 5699 5698 5698 5696 5695 5694 5694 5694 5694 5694 5695 5696 5696 5697 5698 5699 5701 5702 5703 5703 5703 5704 5704 5704 5704 5704 5705 5706 5706 5707 5708 5709 5710 5710 5710 5710
5705 5703 5701 5700 5699 5698 5697 5695 5694 5692 5690 5689 5688 5688 5688 5689 5689 5689 5690 5691 5691 5693 5694 5695 5696 5697 5698 5699 5699 5700 5700 5700 5700 5700 5701 5702 5703 5704 5705 5705 5706 5706 5706
5702 5700 5698 5696 5695 5694 5692 5692 5689 5687 5685 5684 5684 5683 5683 5683 5684 5684 5685 5685 5686 5687 5688 5689 5691 5692 5693 5693 5694 5695 5695 5696 5696 5696 5697 5697 5698 5699 5701 5702 5702 5702 5702
5700 5698 5695 5693 5692 5690 5688 5687 5684 5683 5681 5680 5680 5679 5678 5679 5679 5679 5680 5680 5681 5682 5683 5684 5686 5686 5687 5688 5689 5690 5691 5691 5691 5692 5692 5692 5694 5696 5698 5699 5699 5699 5698
5697 5695 5693 5690 5688 5686 5684 5683 5681 5679 5677 5676 5675 5673 5673 5674 5674 5674 5675 5675 5676 5677 5678 5679 5680 5681 5682 5683 5684 5685 5686 5686 5687 5687 5688 5688 5689 5691 5693 5695 5695 5694 5693
5694 5692 5690 5687 5685 5683 5681 5680 5679 5676 5674 5673 5671 5667 5665 5666 5669 5670 5670 5670 5670 5672 5673 5674 5675 5676 5677 5678 5679 5680 5681 5682 5683 5683 5683 5683 5684 5685 5687 5688 5689 5688 5687
5690 5689 5687 5684 5682 5681 5678 5677 5676 5674 5671 5669 5669 5666 5661 5658 5660 5663 5664 5665 5665 5666 5668 5669 5670 5672 5673 5673 5674 5675 5676 5677 5678 5679 5679 5679 5679 5679 5680 5681 5681 5682 5681
5687 5685 5683 5682 5680 5678 5676 5675 5674 5672 5670 5667 5665 5664 5663 5661 5656 5655 5658 5660 5661 5662 5662 5664 5666 5667 5668 5669 5669 5671 5672 5672 5673 5674 5674 5674 5674 5674 5674 5674 5675 5675 5675
5683 5682 5680 5679 5677 5675 5674 5672 5671 5670 5668 5666 5663 5661 5659 5657 5656 5653 5651 5653 5655 5657 5658 5659 5661 5662 5663 5664 5664 5666 5667 5667 5668 5668 5669 5669 5669 5669 5669 5669 5669 5669 5669
5678 5678 5677 5675 5674 5673 5671 5670 5668 5667 5666 5664 5662 5660 5659 5657 5654 5651 5648 5647 5648 5651 5653 5655 5656 5657 5658 5659 5659 5660 5661 5662 5662 5663 5663 5664 5664 5664 5664 5664 5664 5664 5664
5674 5674 5673 5672 5671 5670 5669 5668 5666 5664 5663 5662 5660 5659 5657 5656 5654 5651 5648 5644 5644 5645 5648 5650 5651 5652 5653 5654 5654 5655 5656 5656 5657 5657 5657 5658 5659 5659 5659 5659 5659 5659 5659
5673 5672 5670 5669 5668 5667 5666 5665 5664 5662 5661 5659 5658 5656 5655 5654 5652 5651 5647 5644 5640 5640 5642 5644 5646 5647 5648 5649 5649 5649 5650 5651 5651 5651 5651 5652 5653 5652 5653 5653 5653 5653 5653
5671 5669 5668 5666 5665 5664 5663 5662 5660 5659 5658 5656 5654 5653 5652 5651 5649 5648 5646 5645 5641 5637 5637 5638 5640 5642 5642 5643 5644 5644 5644 5646 5646 5646 5646 5646 5646 5647 5647 5647 5647 5647 5646
5667 5666 5664 5663 5661 5660 5659 5658 5656 5655 5653 5652 5651 5650 5648 5647 5645 5644 5642 5641 5639 5636 5633 5634 5634 5636 5637 5638 5638 5639 5639 5639 5640 5640 5640 5640 5640 5641 5641 5641 5641 5641 5640
5664 5662 5661 5659 5658 5656 5655 5653 5652 5650 5649 5648 5647 5646 5644 5643 5640 5639 5637 5636 5634 5632 5629 5628 5629 5631 5631 5632 5632 5633 5633 5634 5634 5634 5635 5635 5635 5635 5635 5635 5635 5635 5634
5661 5659 5657 5655 5654 5653 5651 5649 5647 5646 5644 5643 5642 5641 5639 5638 5636 5634 5632 5631 5629 5628 5626 5624 5624 5625 5626 5626 5626 5626 5627 5627 5628 5628 5628 5629 5629 5630 5630 5629 5629 5628 5628
5656 5655 5653 5651 5649 5648 5647 5645 5644 5642 5640 5639 5637 5636 5635 5633 5631 5629 5627 5626 5625 5624 5622 5620 5619 5619 5619 5620 5620 5620 5621 5621 5622 5622 5622 5623 5623 5623 5623 5623 5623 5622 5622
5652 5650 5648 5647 5645 5644 5643 5641 5640 5638 5636 5635 5634 5632 5631 5629 5628 5626 5624 5622 5620 5618 5616 5615 5613 5613 5613 5613 5613 5613 5613 5614 5615 5616 5616 5616 5617 5617 5617 5617 5616 5616 5616
5648 5646 5644 5642 5641 5639 5639 5637 5635 5634 5631 5630 5629 5628 5627 5626 5625 5623 5622 5619 5616 5613 5611 5610 5608 5607 5607 5607 5607 5607 5607 5608 5609 5609 5609 5610 5610 5611 5610 5610 5610 5609 5609
5641 5640 5638 5637 5635 5636 5636 5634 5632 5630 5627 5625 5624 5623 5622 5622 5621 5619 5619 5617 5615 5611 5608 5606 5604 5604 5604 5604 5603 5602 5601 5601 5602 5604 5603 5603 5604 5605 5605 5604 5604 5603 5603
5635 5633 5632 5631 5631 5631 5631 5630 5629 5625 5623 5621 5619 5618 5618 5618 5616 5614 5613 5612 5610 5609 5609 5606 5603 5603 5603 5603 5600 5598 5597 5597 5598 5598 5597 5597 5598 5598 5599 5599 5599 5598 5597
5630 5628 5627 5626 5626 5626 5626 5625 5624 5620 5618 5616 5615 5614 5612 5611 5611 5609 5608 5606 5604 5604 5603 5603 5602 5602 5602 5601 5599 5597 5595 5592 5592 5592 5591 5591 5591 5592 5594 5594 5594 5593 5592
5624 5623 5622 5621 5621 5621 5621 5620 5618 5614 5612 5611 5610 5609 5608 5607 5608 5606 5603 5600 5599 5598 5599 5598 5598 5597 5597 5596 5594 5591 5588 5586 5586 5586 5584 5584 5585 5585 5586 5587 5588 5587 5586
5619 5618 5617 5617 5616 5616 5616 5616 5614 5610 5607 5606 5605 5604 5604 5604 5603 5601 5598 5596 5594 5594 5593 5592 5591 5591 5590 5589 5588 5587 5585 5582 5580 5580 5580 5578 5577 5576 5578 5580 5580 5580 5580